GW1230 Weather Reports


time (UTC)temp
F
wind
direction
speed
knots
gust
knots
rain 1hr
in
rain 24hr
in
rain mn
in
humidity
%
barometer
mb
20260904232253 71 326 4.3 5.2 0.00 0.00 0.00 55 1013.6
20260904231749 70 311 0.0 0.0 0.00 0.00 0.00 55 1013.4
20260904231244 71 315 2.6 6.1 0.00 0.00 0.00 54 1013.3
20260904230739 72 299 0.0 0.0 0.00 0.00 0.00 53 1013.6
20260904230233 71 350 0.0 0.0 0.00 0.00 0.00 54 1013.5
20260904225732 72 288 0.0 0.0 0.00 0.00 0.00 53 1013.5
20260904225226 71 278 0.0 0.0 0.00 0.00 0.00 54 1013.4
20260904224725 69 342 4.3 5.2 0.00 0.00 0.00 55 1013.7
20260904224221 71 279 0.9 0.9 0.00 0.00 0.00 55 1013.3
20260904223720 70 298 0.9 1.7 0.00 0.00 0.00 56 1013.5
20260904223215 71 304 1.7 2.6 0.00 0.00 0.00 54 1013.3
20260904222711 70 307 0.9 2.6 0.00 0.00 0.00 55 1013.4
20260904222207 70 342 4.3 5.2 0.00 0.00 0.00 56 1013.2
20260904221706 70 316 3.5 5.2 0.00 0.00 0.00 55 1013.5
20260904221201 69 327 3.5 4.3 0.00 0.00 0.00 58 1013.5
20260904220656 68 251 0.9 2.6 0.00 0.00 0.00 60 1013.2
20260904220151 68 1 1.7 2.6 0.00 0.00 0.00 59 1013.4
20260904215650 68 238 4.3 6.1 0.00 0.00 0.00 59 1013.4
20260904215147 69 316 5.2 7.0 0.00 0.00 0.00 60 1013.5
20260904214641 69 274 0.9 0.9 0.00 0.00 0.00 61 1013.4
20260904214137 71 326 3.5 5.2 0.00 0.00 0.00 57 1013.2
20260904213635 68 317 5.2 6.1 0.00 0.00 0.00 60 1013.4
20260904213131 69 318 4.3 6.1 0.00 0.00 0.00 59 1013.3
20260904212626 70 329 6.1 7.0 0.00 0.00 0.00 59 1013.5
20260904212121 70 317 0.9 0.9 0.00 0.00 0.00 57 1013.4
20260904211620 69 338 0.0 1.7 0.00 0.00 0.00 57 1013.3
20260904211116 70 267 0.0 0.0 0.00 0.00 0.00 59 1013.3
20260904210616 69 317 4.3 6.1 0.00 0.00 0.00 57 1013.4
20260904210111 69 304 0.9 0.9 0.00 0.00 0.00 57 1013.3
20260904205607 68 2 1.7 2.6 0.00 0.00 0.00 59 1013.3
20260904205103 69 333 7.8 9.6 0.00 0.00 0.00 57 1013.2
20260904204559 68 192 0.0 0.0 0.00 0.00 0.00 61 1013.4
20260904204055 68 348 2.6 5.2 0.00 0.00 0.00 62 1013.2
20260904203550 68 13 4.3 5.2 0.00 0.00 0.00 60 1013.5
20260904203047 67 283 0.9 1.7 0.00 0.00 0.00 62 1013.2
20260904202542 67 336 2.6 4.3 0.00 0.00 0.00 63 1013.3
20260904202039 68 250 3.5 5.2 0.00 0.00 0.00 61 1013.2
20260904201533 68 234 0.0 0.0 0.00 0.00 0.00 63 1013.2
20260904201029 69 306 0.9 1.7 0.00 0.00 0.00 63 1013.4
20260904200527 66 248 6.1 7.0 0.00 0.00 0.00 67 1013.2
20260904200023 67 249 1.7 2.6 0.00 0.00 0.00 67 1013.2
20260904195521 66 252 1.7 4.3 0.00 0.00 0.00 67 1013.1
20260904195020 66 300 5.2 7.8 0.00 0.00 0.00 68 1013.4
20260904194515 66 309 0.0 0.0 0.00 0.00 0.00 68 1013.2
20260904194010 66 238 6.1 7.0 0.00 0.00 0.00 68 1013.3
20260904193505 67 255 0.0 0.9 0.00 0.00 0.00 68 1013.5
20260904193001 67 1 1.7 1.7 0.00 0.00 0.00 68 1013.6
20260904192500 66 353 1.7 2.6 0.00 0.00 0.00 68 1013.5
20260904191957 66 313 0.0 0.9 0.00 0.00 0.00 69 1013.5
20260904191453 66 207 1.7 1.7 0.00 0.00 0.00 70 1013.4
20260904190949 65 320 0.0 0.9 0.00 0.00 0.00 72 1013.5
20260904190444 66 268 0.0 0.0 0.00 0.00 0.00 72 1013.5
20260904185940 66 262 0.0 0.9 0.00 0.00 0.00 71 1013.6
20260904185436 65 293 1.7 1.7 0.00 0.00 0.00 73 1013.7
20260904184937 64 290 1.7 1.7 0.00 0.00 0.00 74 1013.7
20260904184431 64 219 0.9 1.7 0.00 0.00 0.00 73 1013.7
20260904183926 64 245 0.9 0.9 0.00 0.00 0.00 75 1013.6
20260904183421 64 264 1.7 1.7 0.00 0.00 0.00 74 1013.6
20260904182917 64 285 2.6 2.6 0.00 0.00 0.00 75 1013.3
20260904182412 62 261 1.7 2.6 0.00 0.00 0.00 77 1013.5
20260904181906 63 279 0.9 2.6 0.00 0.00 0.00 77 1013.5
20260904181402 63 243 1.7 1.7 0.00 0.00 0.00 77 1013.4
20260904180857 62 320 0.0 0.0 0.00 0.00 0.00 79 1013.5
20260904180352 62 313 0.0 0.0 0.00 0.00 0.00 78 1013.5
20260904175852 63 256 0.9 1.7 0.00 0.00 0.00 78 1013.4
20260904175350 63 260 0.0 0.9 0.00 0.00 0.00 77 1013.4
20260904174844 64 326 2.6 2.6 0.00 0.00 0.00 75 1013.6
20260904174340 66 271 0.0 0.0 0.00 0.00 0.00 73 1013.4
20260904173836 66 270 0.0 0.0 0.00 0.00 0.00 71 1013.4
20260904173331 64 171 1.7 2.6 0.00 0.00 0.00 74 1013.4
20260904172828 62 230 0.0 0.0 0.00 0.00 0.00 78 1013.3
20260904172327 62 196 1.7 1.7 0.00 0.00 0.00 79 1013.4
20260904171822 62 186 4.3 5.2 0.00 0.00 0.00 80 1013.3
20260904171317 64 180 2.6 2.6 0.00 0.00 0.00 77 1013.4
20260904170813 63 163 0.9 0.9 0.00 0.00 0.00 79 1013.2
20260904170309 62 204 2.6 4.3 0.00 0.00 0.00 81 1013.3
20260904165809 61 208 0.9 1.7 0.00 0.00 0.00 82 1013.3
20260904165308 61 74 0.0 0.0 0.00 0.00 0.00 83 1013.4
20260904164803 60 204 0.0 0.0 0.00 0.00 0.00 85 1013.6
20260904164257 60 267 0.0 0.0 0.00 0.00 0.00 88 1013.5
20260904163754 58 258 0.0 0.0 0.00 0.00 0.00 89 1013.4
20260904163248 58 299 0.0 0.0 0.00 0.00 0.00 90 1013.3
20260904162748 58 324 0.0 0.0 0.00 0.00 0.00 91 1013.6
20260904162243 57 329 0.0 0.0 0.00 0.00 0.00 92 1013.4
20260904161739 57 314 0.0 0.0 0.00 0.00 0.00 92 1013.7
20260904161238 57 288 0.0 0.0 0.00 0.00 0.00 92 1013.2
20260904160734 57 322 1.7 1.7 0.00 0.00 0.00 92 1013.4
20260904160230 57 302 0.0 0.0 0.00 0.00 0.00 93 1013.2
20260904155729 56 305 0.0 0.0 0.00 0.00 0.00 93 1013.2
20260904155229 56 314 1.7 1.7 0.00 0.00 0.00 94 1013.1
20260904154727 56 255 1.7 2.6 0.00 0.00 0.00 94 1013.1
20260904154222 55 265 0.0 0.0 0.00 0.00 0.00 94 1013.2
20260904153718 55 297 0.9 0.9 0.00 0.00 0.00 95 1013.2
20260904153213 55 286 0.0 0.0 0.00 0.00 0.00 95 1013.2
20260904152710 55 290 0.0 0.0 0.00 0.00 0.00 95 1013.1
20260904152204 55 275 0.0 0.0 0.00 0.00 0.00 95 1013.1
20260904151659 55 292 0.0 0.0 0.00 0.00 0.00 95 1013.0
20260904151158 55 300 0.0 0.0 0.00 0.00 0.00 95 1013.0
20260904150654 54 291 0.0 0.0 0.00 0.00 0.00 95 1013.0
20260904150149 54 301 0.0 0.0 0.00 0.00 0.00 95 1012.8
20260904145648 54 301 0.0 0.0 0.00 0.00 0.00 95 1012.5
20260904145143 54 300 0.0 0.0 0.00 0.00 0.00 95 1012.6
20260904144638 54 292 0.0 0.0 0.00 0.00 0.00 95 1012.8
20260904144134 54 296 0.0 0.0 0.00 0.00 0.00 95 1012.5
20260904143630 54 282 0.0 0.0 0.00 0.00 0.00 95 1012.6
20260904143126 54 289 0.0 0.0 0.00 0.00 0.00 95 1012.7
20260904142623 54 294 0.0 0.0 0.00 0.00 0.00 95 1012.6
20260904142118 54 294 0.0 0.0 0.00 0.00 0.00 95 1012.5
20260904141613 54 301 0.0 0.0 0.00 0.00 0.00 95 1012.5
20260904141108 54 275 0.0 0.0 0.00 0.00 0.00 95 1012.4
20260904140604 54 272 0.0 0.0 0.00 0.00 0.00 95 1012.4
20260904140058 54 279 0.0 0.0 0.00 0.00 0.00 95 1012.4
20260904135557 54 281 0.0 0.0 0.00 0.00 0.00 95 1012.2
20260904135053 54 294 0.0 0.0 0.00 0.00 0.00 95 1012.2
20260904134548 54 298 0.0 0.0 0.00 0.00 0.00 95 1012.1
20260904134043 54 296 0.0 0.0 0.00 0.00 0.00 95 1012.4
20260904133537 54 290 0.0 0.0 0.00 0.00 0.00 95 1011.9
20260904133033 54 285 0.0 0.0 0.00 0.00 0.00 95 1011.8
20260904132528 53 290 0.0 0.0 0.00 0.00 0.00 95 1011.9
20260904132028 54 291 0.0 0.0 0.00 0.00 0.00 95 1011.8
20260904131527 54 291 0.0 0.0 0.00 0.00 0.00 95 1012.0
20260904131023 54 289 0.0 0.0 0.00 0.00 0.00 95 1011.7
20260904130522 54 287 0.0 0.0 0.00 0.00 0.00 95 1011.6
20260904130017 54 277 0.0 0.0 0.00 0.00 0.00 95 1011.6
20260904125514 54 274 0.0 0.0 0.00 0.00 0.00 95 1011.6
20260904125008 54 276 0.0 0.0 0.00 0.00 0.00 94 1011.6
20260904124504 54 277 0.0 0.0 0.00 0.00 0.00 94 1011.7
20260904123954 54 271 0.0 0.0 0.00 0.00 0.00 94 1011.5
20260904123448 53 282 0.0 0.0 0.00 0.00 0.00 94 1011.5
20260904122944 53 277 0.0 0.0 0.00 0.00 0.00 94 1011.7
20260904122443 53 282 0.0 0.0 0.00 0.00 0.00 94 1011.7
20260904121938 54 276 0.0 0.0 0.00 0.00 0.00 94 1011.6
20260904121434 53 284 0.0 0.0 0.00 0.00 0.00 94 1011.7
20260904120931 53 290 0.0 0.0 0.00 0.00 0.00 93 1011.5
20260904120426 54 301 0.0 0.0 0.00 0.00 0.00 93 1011.4
20260904115921 54 284 0.0 0.0 0.00 0.00 0.00 93 1011.4
20260904115416 54 283 0.0 0.0 0.00 0.00 0.00 93 1011.3
20260904114910 54 301 0.0 0.0 0.00 0.00 0.00 93 1011.1
20260904114405 54 306 0.0 0.0 0.00 0.00 0.00 93 1011.1
20260904113901 54 298 0.0 0.0 0.00 0.00 0.00 93 1011.1
20260904113401 54 305 0.0 0.0 0.00 0.00 0.00 92 1011.2
20260904112900 54 269 0.0 0.0 0.00 0.00 0.00 92 1011.0
20260904112356 54 292 0.0 0.0 0.00 0.00 0.00 92 1011.1
20260904111851 54 274 0.0 0.0 0.00 0.00 0.00 92 1011.2
20260904111347 54 262 0.0 0.0 0.00 0.00 0.00 92 1010.9
20260904110842 55 279 0.0 0.0 0.00 0.00 0.00 92 1011.0
20260904110341 55 267 0.0 0.0 0.00 0.00 0.00 92 1011.0
20260904105836 54 266 0.0 0.0 0.00 0.00 0.00 92 1010.9
20260904105331 55 271 0.0 0.0 0.00 0.00 0.00 92 1011.0
20260904104826 55 273 0.0 0.0 0.00 0.00 0.00 92 1011.1
20260904104321 55 295 0.0 0.0 0.00 0.00 0.00 91 1010.9
20260904103818 55 281 0.0 0.0 0.00 0.00 0.00 91 1010.7
20260904103318 55 289 0.0 0.0 0.00 0.00 0.00 91 1011.1
20260904102814 55 296 0.0 0.0 0.00 0.00 0.00 91 1010.8
20260904102309 55 291 0.0 0.0 0.00 0.00 0.00 92 1010.8
20260904101805 55 300 0.0 0.0 0.00 0.00 0.00 91 1010.7
20260904101301 55 304 0.0 0.0 0.00 0.00 0.00 91 1010.6
20260904100756 55 309 0.0 0.0 0.00 0.00 0.00 91 1010.8
20260904100252 55 295 0.0 0.0 0.00 0.00 0.00 91 1010.7
20260904095752 55 289 0.0 0.0 0.00 0.00 0.00 91 1010.8
20260904095247 56 294 0.0 0.0 0.00 0.00 0.00 91 1010.8
20260904094742 56 275 0.0 0.0 0.00 0.00 0.00 91 1010.7
20260904094237 56 274 0.0 0.0 0.00 0.00 0.00 91 1010.6
20260904093734 56 260 0.0 0.0 0.00 0.00 0.00 91 1010.8
20260904093233 56 284 0.0 0.0 0.00 0.00 0.00 91 1010.8
20260904092729 56 261 0.0 0.0 0.00 0.00 0.00 91 1010.7
20260904092225 56 260 0.0 0.0 0.00 0.00 0.00 92 1010.8
20260904091720 56 311 0.0 0.0 0.00 0.00 0.00 92 1010.9
20260904091215 56 305 0.0 0.0 0.00 0.00 0.00 92 1010.8
20260904090711 56 326 0.0 0.0 0.00 0.00 0.00 92 1010.8
20260904090207 56 284 0.0 0.0 0.00 0.00 0.00 91 1010.5
20260904085701 56 280 0.0 0.0 0.00 0.00 0.00 91 1010.5
20260904085156 57 304 0.0 1.7 0.00 0.00 0.00 91 1010.6
20260904084651 57 313 0.0 0.0 0.00 0.00 0.00 91 1010.4
20260904084147 57 282 2.6 4.3 0.00 0.00 0.00 91 1010.2
20260904083643 57 300 1.7 2.6 0.00 0.00 0.00 91 1010.3
20260904083140 57 300 0.0 0.9 0.00 0.00 0.00 91 1010.4
20260904082634 57 291 0.0 0.0 0.00 0.00 0.00 91 1010.6
20260904082130 58 286 0.0 0.0 0.00 0.00 0.00 90 1010.7
20260904081625 58 293 1.7 1.7 0.00 0.00 0.00 90 1010.7
20260904081120 58 295 1.7 2.6 0.00 0.00 0.00 89 1010.8
20260904080615 58 296 0.9 1.7 0.00 0.00 0.00 88 1011.0
20260904080112 58 280 0.0 0.0 0.00 0.00 0.00 87 1010.7
20260904075607 58 275 0.0 0.0 0.00 0.00 0.00 87 1010.8
20260904075107 58 287 0.0 0.0 0.00 0.00 0.00 87 1010.7
20260904074601 58 289 0.0 0.0 0.00 0.00 0.00 87 1011.0
20260904074056 58 287 0.0 0.0 0.00 0.00 0.00 86 1010.9
20260904073550 59 283 0.0 0.0 0.00 0.00 0.00 86 1010.9
20260904073047 59 274 0.0 0.0 0.00 0.00 0.00 85 1010.9
20260904072543 59 277 0.0 0.0 0.00 0.00 0.00 84 1010.5
20260904072038 59 260 0.0 0.0 0.00 0.00 0.00 83 1010.7
20260904071533 59 265 0.0 0.0 0.00 0.00 0.00 82 1010.8
20260904071028 59 266 0.0 0.0 0.00 0.00 0.00 80 1010.9
20260904070527 59 266 0.0 0.0 0.00 0.00 0.00 80 1010.6
20260904070022 59 266 0.0 0.0 0.00 0.01 0.01 80 1010.6
20260904065517 59 262 0.0 0.0 0.00 0.01 0.01 80 1010.5
20260904065013 59 249 0.0 0.0 0.00 0.01 0.01 81 1010.7
20260904064509 59 266 0.0 0.0 0.00 0.01 0.01 80 1010.5
20260904064003 59 266 0.0 0.0 0.00 0.01 0.01 80 1010.8
20260904063500 59 266 0.0 0.0 0.00 0.01 0.01 80 1010.7
20260904062954 60 266 0.0 0.0 0.00 0.01 0.01 80 1010.8
20260904062451 60 267 0.0 0.0 0.00 0.01 0.01 79 1010.8
20260904061946 59 273 0.0 0.0 0.00 0.01 0.01 79 1010.7
20260904061442 59 274 0.0 0.0 0.00 0.01 0.01 79 1010.8
20260904060938 59 274 0.0 0.0 0.00 0.01 0.01 79 1010.5
20260904060434 59 278 0.0 0.0 0.00 0.01 0.01 79 1010.5
20260904055929 59 280 0.0 0.0 0.00 0.01 0.01 79 1010.5
20260904055425 59 280 0.0 0.0 0.00 0.01 0.01 79 1010.5
20260904054921 59 283 0.0 0.0 0.00 0.01 0.01 79 1010.4
20260904054416 59 281 0.0 0.0 0.00 0.01 0.01 79 1010.5
20260904053912 59 276 0.0 0.0 0.00 0.01 0.01 79 1010.5
20260904053411 59 279 0.0 0.0 0.00 0.01 0.01 79 1010.4
20260904052907 59 278 0.0 0.0 0.00 0.01 0.01 78 1010.6
20260904052403 59 273 0.0 0.0 0.00 0.01 0.01 78 1010.4
20260904051859 59 268 0.0 0.0 0.00 0.01 0.01 78 1010.4
20260904051354 60 268 0.0 0.0 0.00 0.01 0.01 77 1010.4
20260904050854 60 268 0.0 0.0 0.00 0.01 0.01 77 1010.3
20260904050351 60 263 0.0 0.0 0.00 0.01 0.01 76 1010.4
20260904045851 60 266 0.0 0.0 0.00 0.01 0.01 76 1010.5
20260904045346 60 257 0.0 0.0 0.00 0.01 0.01 76 1010.6
20260904044840 60 244 0.0 0.0 0.00 0.01 0.01 77 1010.6
20260904044337 60 275 0.0 0.0 0.00 0.01 0.01 79 1010.5
20260904043833 60 266 0.0 0.0 0.00 0.01 0.01 78 1010.6
20260904043330 60 266 0.0 0.0 0.00 0.01 0.01 78 1010.6
20260904042829 60 232 0.0 0.0 0.00 0.01 0.01 78 1010.6
20260904042325 60 273 0.0 0.0 0.00 0.01 0.01 78 1010.7
20260904041820 60 287 0.0 0.0 0.00 0.01 0.01 79 1010.5
20260904041316 60 252 0.0 0.0 0.00 0.01 0.01 78 1010.6
20260904040812 60 229 0.0 1.7 0.00 0.01 0.01 77 1010.6
20260904040307 60 247 0.0 0.0 0.00 0.01 0.01 77 1010.5
20260904035803 61 213 0.0 0.0 0.00 0.01 0.01 77 1010.5
20260904035259 61 264 0.0 0.0 0.00 0.01 0.01 76 1010.4
20260904034757 61 262 0.0 0.0 0.00 0.01 0.01 74 1010.3
20260904034253 61 211 2.6 4.3 0.00 0.01 0.01 73 1010.2
20260904033749 61 230 0.9 1.7 0.00 0.01 0.01 73 1010.3
20260904033246 61 241 0.9 1.7 0.00 0.01 0.01 72 1010.3
20260904032741 62 268 0.0 0.9 0.00 0.01 0.01 72 1010.2
20260904032240 62 253 0.0 0.0 0.00 0.01 0.01 72 1010.0
20260904031729 62 232 0.0 0.9 0.00 0.01 0.01 72 1010.2
20260904031225 62 219 1.7 1.7 0.00 0.01 0.01 72 1010.0
20260904030720 62 268 1.7 1.7 0.00 0.01 0.01 72 1009.9
20260904030216 62 256 1.7 2.6 0.00 0.01 0.01 72 1009.8
20260904025712 62 253 0.0 0.9 0.00 0.01 0.01 72 1010.0
20260904025207 62 229 1.7 1.7 0.00 0.01 0.01 72 1009.7
20260904024703 63 217 0.0 0.0 0.00 0.01 0.01 72 1009.8
20260904024158 63 262 0.0 0.0 0.00 0.01 0.01 71 1009.8
20260904023654 63 257 0.0 0.0 0.00 0.01 0.01 70 1009.8
20260904023150 63 255 0.9 1.7 0.00 0.01 0.01 69 1009.8
20260904022649 64 244 0.0 0.0 0.00 0.01 0.01 68 1009.6
20260904022146 64 264 0.0 0.0 0.00 0.01 0.01 67 1009.7
20260904021642 64 248 0.0 0.0 0.00 0.01 0.01 67 1009.8
20260904021136 64 220 0.0 0.0 0.00 0.01 0.01 67 1009.5
20260904020633 65 252 1.7 1.7 0.00 0.01 0.01 66 1009.5
20260904020127 66 263 0.0 0.0 0.00 0.01 0.01 65 1009.5
20260904015621 65 275 0.0 0.0 0.00 0.01 0.01 65 1009.7
20260904015120 65 256 1.7 2.6 0.00 0.01 0.01 66 1009.5
20260904014619 65 251 2.6 4.3 0.00 0.01 0.01 67 1009.3
20260904014114 65 244 0.0 0.9 0.00 0.01 0.01 66 1009.5
20260904013611 65 288 0.0 0.9 0.00 0.01 0.01 67 1009.5
20260904013107 65 239 0.0 0.0 0.00 0.01 0.01 66 1009.5
20260904012608 64 257 0.0 0.0 0.00 0.01 0.01 66 1009.5
20260904012102 64 231 2.6 2.6 0.00 0.01 0.01 65 1009.6
20260904011601 65 240 0.0 0.9 0.00 0.01 0.01 64 1009.7
20260904011057 65 241 4.3 6.1 0.00 0.01 0.01 64 1009.5
20260904010552 65 236 1.7 2.6 0.00 0.01 0.01 64 1009.6
20260904010050 65 189 0.0 0.0 0.00 0.01 0.01 65 1009.5
20260904005548 65 233 0.0 0.0 0.00 0.01 0.01 65 1009.6
20260904005044 65 197 0.0 0.0 0.00 0.01 0.01 66 1009.5
20260904004539 65 107 0.0 0.0 0.00 0.01 0.01 66 1009.4
20260904004034 65 185 2.6 2.6 0.00 0.01 0.01 66 1009.5
20260904003530 65 191 0.0 0.0 0.00 0.01 0.01 64 1009.4
20260904003026 66 199 2.6 2.6 0.00 0.01 0.01 60 1009.3
20260904002521 66 265 0.0 0.0 0.00 0.01 0.01 59 1009.3
20260904002021 66 272 0.0 0.0 0.00 0.01 0.01 60 1009.6
20260904001517 66 270 0.0 0.0 0.00 0.01 0.01 60 1009.4
20260904001016 66 262 0.0 0.0 0.00 0.01 0.01 59 1009.4
20260904000515 67 235 0.0 0.0 0.00 0.01 0.01 58 1009.6
20260904000012 66 255 0.0 0.0 0.00 0.01 0.01 60 1009.3
20260903235506 66 263 0.0 0.0 0.00 0.01 0.01 61 1009.2
20260903235001 65 207 0.0 0.0 0.00 0.01 0.01 62 1009.3
20260903234456 66 264 0.9 0.9 0.00 0.01 0.01 61 1009.3
20260903233953 67 209 2.6 2.6 0.00 0.01 0.01 60 1009.4
20260903233449 66 321 0.0 0.0 0.00 0.01 0.01 62 1009.3
20260903232943 65 190 1.7 1.7 0.00 0.01 0.01 62 1009.4